#timestamp,LO_Frequency,Hit,StdDev 
1547571615.9,286047002.0,N
1547571635.7,286047002.3,N
1547571655.6,286046999.8,N
1547571675.4,286047000.3,N
1547571695.2,286047001.4,N
1547571715.1,286047001.5,N
1547571716.0,286047001.5,N
1547571735.8,286047002.2,N
1547571755.7,286047001.8,N
1547571775.5,286047001.3,N
1547571795.3,286047002.6,N
1547571815.2,286047000.3,N
1547571835.0,286046998.2,N
1547571835.9,286046998.2,N
1547571855.7,286046997.4,N
1547571875.6,286046997.4,N
1547571895.4,286046997.1,N
1547571915.3,286046996.9,N
1547571935.1,286046998.7,N
1547571955.8,286046998.2,N
1547571975.7,286047002.8,N
1547571995.5,286047000.8,N
1547572015.4,286047000.4,N
1547572035.2,286047000.1,N
1547572055.0,286047000.4,N
1547572055.9,286047000.4,N
1547572075.8,286047000.7,N
1547572095.6,286046998.3,N
1547572115.4,286047001.1,N
1547572135.3,286047001.1,N
1547572155.1,286046999.0,N
1547572175.9,286046999.0,N
1547572195.7,286046998.7,N
1547572215.5,286046999.3,N
1547572235.4,286046998.1,N
1547572255.2,286047001.1,N
1547572275.0,286047000.7,N
1547572275.9,286047000.7,N
1547572295.8,286047001.1,N
1547572315.6,286046998.1,N
1547572335.5,286046998.3,N
1547572355.3,286046999.4,N
1547572375.1,286046998.5,N
1547572395.9,286047000.3,N
1547572415.7,286047000.6,N
1547572435.5,286047000.6,N
1547572455.4,286047000.7,N
1547572475.2,286047001.1,N
1547572495.1,286046999.9,N
1547572496.0,286046999.9,N
1547572515.8,286047000.8,N
1547572535.6,286047000.4,N
1547572555.5,286047000.5,N
1547572575.3,286047001.3,N
1547572595.2,286047002.1,N
1547572615.9,286047000.9,N
1547572635.8,286047001.2,N
1547572655.6,286046999.4,N
1547572675.5,286046998.3,N
1547572695.3,286046998.6,N
1547572715.2,286047000.9,N
1547572735.0,286047000.8,N
1547572735.9,286047000.8,N
1547572755.7,286046998.5,N
1547572775.6,286047001.0,N
1547572795.4,286046999.7,N
1547572815.3,286047004.4,Y
1547572835.1,286047002.2,P
1547572855.8,286047002.4,N
1547572875.7,286047000.3,N
1547572895.5,286047002.0,N
1547572915.4,286047003.8,Y
1547572935.2,286047002.2,P
1547572955.0,286047000.0,N
1547572955.9,286047000.0,N
1547572975.8,286046999.0,N
1547572995.6,286046998.2,N
1547573015.5,286047000.3,N
1547573035.3,286047000.5,N
1547573055.1,286046998.9,N
1547573075.9,286046998.5,N
1547573095.7,286046998.5,N
1547573115.5,286047000.9,N
1547573135.4,286046998.8,N
1547573155.2,286046997.4,N
1547573175.1,286046995.0,Y
1547573176.0,286046995.0,P
1547573195.8,286046997.4,N
1547573215.6,286046996.8,N
1547573235.5,286046997.0,N
1547573255.3,286046999.6,N
1547573275.2,286046998.2,N
1547573295.9,286046998.3,N
1547573315.7,286047000.8,N
1547573335.6,286046998.2,N
1547573355.4,286046998.5,N
1547573375.2,286047000.5,N
1547573395.1,286047002.8,N
1547573396.0,286047002.8,N
1547573415.8,286047001.0,N
1547573435.7,286047000.8,N
1547573455.5,286047000.0,N
1547573475.3,286047002.4,N
1547573495.2,286047000.4,N
1547573515.0,286047002.8,N
1547573515.9,286047002.8,N
1547573535.8,286047000.5,N
1547573555.6,286047002.2,N
1547573575.4,286047002.4,N
1547573595.3,286047002.3,N
1547573615.1,286047000.1,N
1547573635.8,286047000.2,N
1547573655.7,286047000.0,N
1547573675.5,286047002.3,N
1547573695.4,286047000.4,N
1547573715.2,286047001.1,N
1547573735.0,286047002.6,N
1547573735.9,286047002.6,N
1547573755.8,286047002.7,N
1547573775.6,286047002.5,N
1547573795.5,286047002.5,N
1547573815.3,286047004.2,N
1547573835.1,286047003.7,N
1547573855.9,286047003.5,N
1547573875.7,286047002.0,N
1547573895.5,286047002.3,N
1547573915.4,286047000.3,N
1547573935.2,286047001.1,N
1547573955.1,286046999.8,N
1547573956.0,286046999.8,N
1547573975.8,286046999.8,N
1547573995.6,286046999.8,N
1547574015.5,286046999.9,N
1547574035.3,286047002.4,N
1547574055.1,286047001.2,N
1547574075.9,286047000.5,N
1547574095.7,286047000.8,N
1547574115.6,286047000.4,N
1547574135.4,286047000.0,N
1547574155.2,286046999.7,N
1547574175.1,286047000.4,N
1547574176.0,286047000.4,N
1547574195.8,286047002.6,N
1547574215.7,286046999.7,N
1547574235.5,286047000.2,N
1547574255.3,286047002.5,N
1547574275.2,286047002.0,N
1547574295.9,286047002.4,N
1547574315.7,286047002.8,N
1547574335.6,286047000.7,N
1547574355.4,286047000.9,N
1547574375.3,286047000.4,N
1547574395.1,286047001.1,N
1547574396.0,286047001.1,N
1547574415.8,286047000.5,N
1547574435.7,286047000.1,N
1547574455.5,286047000.9,N
1547574475.3,286046999.7,N
1547574495.2,286047000.1,N
1547574515.0,286047000.6,N
1547574515.9,286047000.6,N
1547574535.8,286047002.3,N
1547574555.6,286047000.4,N
1547574575.4,286046998.1,N
1547574595.3,286047001.8,N
1547574615.1,286047003.2,Y
1547574635.9,286047005.7,P
1547574655.7,286047006.0,N
1547574675.5,286047002.9,N
1547574695.4,286047003.0,N
1547574715.2,286047003.8,N
1547574735.0,286047004.2,N
1547574735.9,286047004.2,N
1547574755.8,286047001.3,N
1547574775.6,286047005.0,N
1547574795.5,286047005.8,Y
1547574815.3,286047002.2,P
1547574835.2,286047002.5,P
1547574855.9,286047000.1,N
1547574875.7,286047000.5,N
1547574895.6,286046998.2,N
1547574915.4,286047000.0,N
1547574935.2,286047000.2,N
1547574955.1,286046999.9,N
1547574956.0,286046999.9,N
1547574975.8,286046998.2,N
1547574995.7,286047000.4,N
1547575015.5,286047000.5,N
1547575035.3,286047001.0,N
1547575055.2,286046997.0,N
1547575075.0,286046997.6,N
1547575075.9,286046997.6,N
1547575095.8,286046996.9,N
1547575115.6,286046997.3,N
1547575135.4,286046997.8,N
1547575155.3,286046997.6,N
1547575175.1,286046996.9,N
1547575195.8,286046999.2,N
